Bettles, AK

7:51 PM AKDT on September 19, 2019 (GMT -0800)
Bettles

Weather History for PABT - May, 2019

Change the Weather History Date:

Tuesday, May 14, 2019

  Actual Average Record
Temperature  
Mean Temperature 49 °F -  
Max Temperature 57 °F 50 °F 69 °F (2005)
Min Temperature 41 °F 32 °F 8 °F (2013)
Degree Days  
Heating Degree Days 16    
Moisture  
Dew Point 31 °F    
Average Humidity 49    
Maximum Humidity 71    
Minimum Humidity 23    
Precipitation  
Precipitation 0.00 in - - ()
Snow  
Snow 0.00 in - - ()
Snow Depth 14.00 in    
Sea Level Pressure  
Sea Level Pressure 29.93 in    
Wind  
Wind Speed 7 mph (NNE)    
Max Wind Speed 12 mph    
Max Gust Speed 18 mph    
Visibility 10 miles    
Events      
Averages and records for this station are not official NWS values.
T = Trace of Precipitation, MM = Missing Value Source: NWS Daily Summary

Daily Weather History Graph

Daily Weather History Graph

Search for Another Location

Airport or City:

Astronomy

May. 14, 2019 Rise Set
Actual Time 4:18 AM AKDT 11:50 PM AKDT
Civil Twilight 2:34 AM AKDT 1:30 AM AKDT
Nautical Twilight Sun does not set Sun does not set
Astronomical Twilight Sun does not set Sun does not set
Moon 4:27 PM AKDT (5/14) 5:24 AM AKDT (5/14)
Length of Visible Light 22h 55m
Length of Day
19h 32m
Waxing Gibbous, 80% of the Moon is Illuminated
May 14
Waxing Gibbous
May 18
Full
May 26
Last Quarter
Jun 3
New
Jun 9
First Quarter

Hourly Weather History & Observations

Time (AKDT) Temp. Windchill Dew Point Humidity Pressure Visibility Wind Dir Wind Speed Gust Speed Precip Events Conditions
12:53 AM 43.0 °F 39.5 °F 33.1 °F 68% 29.96 in 10.0 mi North 5.8 mph - 0.00 in   Overcast
1:53 AM 43.0 °F 38.2 °F 34.0 °F 71% 29.95 in 10.0 mi NNW 8.1 mph - 0.00 in   Overcast
2:53 AM 43.0 °F 38.2 °F 33.1 °F 68% 29.95 in 10.0 mi North 8.1 mph - N/A   Overcast
3:53 AM 42.1 °F 37.1 °F 33.1 °F 70% 29.94 in 10.0 mi NNW 8.1 mph - N/A   Overcast
4:53 AM 42.1 °F 37.7 °F 33.1 °F 70% 29.94 in 10.0 mi NNW 6.9 mph - N/A   Overcast
5:53 AM 42.1 °F 37.1 °F 33.1 °F 70% 29.93 in 10.0 mi North 8.1 mph - N/A   Scattered Clouds
6:53 AM 42.1 °F 38.4 °F 33.1 °F 70% 29.94 in 10.0 mi North 5.8 mph - N/A   Partly Cloudy
7:53 AM 45.0 °F 42.6 °F 33.1 °F 63% 29.94 in 10.0 mi North 4.6 mph - N/A   Scattered Clouds
8:53 AM 46.9 °F - 33.1 °F 59% 29.94 in 10.0 mi North 5.8 mph - N/A   Scattered Clouds
9:53 AM 50.0 °F - 30.9 °F 48% 29.93 in 10.0 mi NNE 6.9 mph - N/A   Mostly Cloudy
10:53 AM 53.1 °F - 30.0 °F 41% 29.93 in 10.0 mi NE 5.8 mph - N/A   Scattered Clouds
11:53 AM 54.0 °F - 30.0 °F 40% 29.93 in 10.0 mi NE 6.9 mph - N/A   Mostly Cloudy
12:53 PM 54.0 °F - 28.9 °F 38% 29.94 in 10.0 mi ENE 6.9 mph - N/A   Overcast
1:53 PM 55.0 °F - 28.9 °F 37% 29.93 in 10.0 mi ENE 6.9 mph - N/A   Overcast
2:53 PM 57.0 °F - 30.0 °F 36% 29.93 in 10.0 mi NE 9.2 mph - N/A   Overcast
3:53 PM 57.9 °F - 30.0 °F 35% 29.92 in 10.0 mi NNE 9.2 mph - N/A   Overcast
4:53 PM 57.0 °F - 30.0 °F 36% 29.92 in 10.0 mi NE 8.1 mph - N/A   Overcast
5:53 PM 55.9 °F - 30.0 °F 37% 29.91 in 10.0 mi NE 8.1 mph - N/A   Overcast
6:53 PM 55.0 °F - 30.0 °F 38% 29.91 in 10.0 mi NE 8.1 mph - N/A   Overcast
7:53 PM 53.1 °F - 28.9 °F 40% 29.91 in 10.0 mi NE 10.4 mph - N/A   Overcast
8:53 PM 52.0 °F - 28.9 °F 41% 29.91 in 10.0 mi NE 9.2 mph - N/A   Overcast
9:53 PM 52.0 °F - 28.9 °F 41% 29.91 in 10.0 mi NE 11.5 mph 18.4 mph N/A   Overcast
10:53 PM 50.0 °F - 28.9 °F 44% 29.94 in 10.0 mi SSW 3.5 mph - 0.00 in   Overcast
11:53 PM 46.9 °F - 30.9 °F 54% 29.94 in 10.0 mi NNE 8.1 mph - 0.00 in   Overcast